CAPE
191 136 85 31 0 0 17 0 0 0 0 0 0 0 0 0 0 0 0 0 0 0 18 26 42 62 41 36 31 31 7 3 6 3 3 1 1 0
150 151 103 101 32 0 0 0 0 0 0 0 0 0 0 0 0 0 0 0 0 0 0 6 11 26 10 13 1 1 0 1 2 5 2 0 0 0
139 152 137 110 121 47 1 0 2 3 1 0 0 0 0 0 0 0 0 0 0 0 0 0 0 3 0 2 0 0 0 0 3 3 0 0 0 0
80 89 107 81 36 30 0 10 2 0 0 3 0 0 0 0 0 0 0 0 0 0 0 0 0 0 0 0 0 0 0 0 0 0 0 0 0 0
125 89 61 58 36 99 27 11 0 1 1 3 0 0 0 0 0 0 0 0 0 0 0 0 0 0 0 0 0 0 0 0 0 0 0 0 0 1
79 79 38 3 0 1 5 2 6 15 15 13 13 15 0 0 0 0 0 0 0 0 0 0 0 0 0 0 0 0 0 0 0 0 0 0 0 3
0 26 38 3 0 0 0 1 1 3 4 33 23 22 3 0 0 0 0 0 0 0 0 0 0 0 0 0 0 0 0 0 0 0 0 0 0 0
0 4 18 29 0 0 0 0 0 0 5 9 2 17 17 0 0 0 0 0 0 0 0 0 0 0 0 0 0 0 0 0 0 0 0 0 0 0
10 5 0 0 0 3 0 0 0 0 1 8 10 4 9 6 1 0 0 0 0 0 0 0 0 0 0 0 0 0 0 0 0 0 0 0 0 0
0 0 0 0 0 0 0 1 0 0 1 0 0 1 1 1 0 1 0 0 0 0 0 0 0 0 0 0 0 0 0 0 0 0 0 0 0 0
0 0 0 1 1 0 0 0 1 2 1 0 1 1 2 2 0 0 0 0 1 1 1 0 0 0 0 0 0 0 0 0 0 0 0 0 0 0
1 0 4 2 3 1 0 0 1 3 2 0 0 0 2 3 3 0 0 0 1 0 0 0 0 1 0 0 0 0 0 1 1 1 1 1 0 0
1 2 5 9 8 6 2 2 3 0 0 0 0 0 0 1 2 1 2 2 2 1 0 0 1 0 0 0 0 0 0 0 1 1 5 2 1 1
2 2 2 3 2 0 0 1 0 0 0 0 0 1 1 1 0 0 0 0 0 0 0 1 2 0 0 0 0 0 0 0 0 0 0 2 9 11
0 1 1 0 0 0 1 1 0 0 0 0 1 2 0 0 0 1 0 0 0 0 0 0 0 0 0 1 2 3 0 0 0 0 0 0 0 5
0 0 0 1 2 1 0 0 0 0 0 1 1 1 0 0 0 1 0 0 0 0 0 0 0 0 0 0 0 2 8 1 0 0 0 0 0 7
0 0 0 0 0 0 0 0 1 0 0 0 0 0 0 0 0 0 2 3 4 2 0 0 0 0 0 0 1 1 0 1 1 0 0 0 0 0
0 0 1 0 0 0 0 0 3 1 0 1 0 0 0 0 0 0 0 0 0 0 2 2 0 1 0 0 1 0 0 4 1 0 0 6 1 0
1 0 0 4 3 6 3 4 4 1 0 0 1 0 2 1 0 0 0 0 0 0 0 0 2 5 2 0 0 1 0 0 3 0 0 0 1 0
0 4 5 5 4 2 2 3 0 0 0 1 0 2 1 0 0 0 0 1 0 0 1 1 3 1 0 0 0 0 0 0 1 0 0 0 0 5
2 2 1 1 2 3 4 0 0 0 0 0 0 0 0 0 0 0 0 8 11 1 0 0 0 9 0 0 0 0 0 3 1 0 0 0 0 0
0 0 0 0 0 1 0 0 0 0 0 0 0 0 0 0 0 0 1 1 0 0 0 0 0 0 0 0 0 0 0 0 2 6 5 2 0 0
0 0 3 2 4 0 0 0 0 0 0 0 0 0 0 1 1 0 0 1 0 0 0 2 1 0 0 0 0 0 0 0 0 0 1 5 4 3
CIN
-22 -25 -15 -5 0 0 -70 0 0 0 0 0 0 0 0 0 0 0 0 0 0 0 -263 -199 -122 -82 -104 -134 -147 -185 -201 0 0 0 0 0 0 0
-20 -23 -19 -4 -19 0 0 0 0 -11 -1 0 0 0 0 0 0 0 0 0 0 0 0 -319 -294 -220 -220 -240 -133 -163 0 0 0 0 0 0 0 0
-31 -17 -13 -19 -15 -21 -25 -2 -25 -12 -2 0 0 0 0 0 0 0 0 0 0 0 0 0 -86 -367 0 -291 0 0 0 0 0 0 0 0 0 0
-39 -29 -3 -6 -28 -24 0 -37 -34 -26 0 -1 0 0 0 0 0 0 0 0 0 0 0 0 0 0 0 0 0 0 0 0 0 0 0 0 0 0
-33 -31 -17 -8 -10 -1 -5 -16 0 -3 -1 -10 -2 0 0 0 0 0 0 0 0 0 0 0 0 0 0 0 0 0 0 0 0 0 0 0 0 0
-64 -45 -36 -15 0 -2 -3 -3 -2 -1 -2 -9 -12 -15 0 0 0 0 0 0 0 0 0 0 0 0 0 0 0 0 0 0 0 0 0 0 0 0
0 -64 -41 -28 0 0 -1 -16 -3 -2 -6 0 -2 -3 -7 0 0 0 0 0 0 0 0 0 0 0 0 0 0 0 0 0 0 0 0 0 0 0
-1 -86 -53 -39 0 0 0 0 0 0 -3 0 -2 0 0 0 0 0 0 0 0 0 0 0 0 0 0 0 0 0 0 0 0 0 0 0 0 0
-83 -77 -11 0 0 -23 0 0 0 0 -19 -29 -14 -19 -10 -3 -15 0 0 0 0 -19 0 0 0 0 0 0 0 0 0 0 0 0 0 0 0 0
0 0 0 0 0 0 0 0 0 0 0 0 0 0 0 0 0 0 0 0 0 0 0 0 0 0 0 0 0 0 0 0 0 0 0 0 0 0
0 0 0 0 0 0 0 0 0 0 0 0 0 0 0 0 0 0 0 0 0 0 0 0 0 0 0 0 0 0 0 0 0 0 0 0 0 0
0 0 0 0 0 0 0 0 0 0 0 0 0 0 0 0 0 0 0 0 0 0 0 0 0 0 0 0 0 0 0 0 0 0 0 0 -1 -1
0 0 0 0 0 0 0 0 0 0 0 0 0 0 0 0 0 0 0 0 0 0 0 0 0 0 0 0 0 0 0 0 0 0 0 0 0 0
0 0 0 0 0 0 0 0 0 0 0 0 0 0 0 0 0 0 0 0 0 0 0 0 0 0 0 0 0 0 0 0 0 0 0 0 0 0
0 0 0 0 0 0 0 0 0 0 0 0 0 0 0 0 0 -1 0 0 0 0 0 0 0 0 0 0 0 0 0 0 0 0 0 0 0 0
0 0 0 0 0 0 0 0 0 -1 0 -1 -1 -1 0 0 -2 -1 -4 -2 -1 -1 0 0 0 0 0 0 0 -1 0 -3 0 0 0 0 -1 -1
0 0 0 0 0 0 0 0 0 0 0 0 -1 0 -1 -2 -1 -2 -2 -1 0 -1 -1 -1 0 0 0 0 0 0 -1 0 -1 0 0 0 0 -1
0 0 0 0 0 0 0 0 0 0 0 0 -1 -1 0 0 0 0 0 0 0 0 -2 -2 -3 0 0 0 0 0 0 0 -1 -3 0 0 -1 -1
0 0 0 0 0 0 0 0 0 0 0 0 0 0 -1 -1 -1 0 0 0 0 0 0 0 -3 0 0 -1 0 -4 0 0 0 0 0 0 0 0
0 0 0 0 0 0 0 0 0 0 0 0 0 0 -1 0 0 0 0 0 0 -1 0 -1 0 -1 0 0 0 0 0 0 0 0 0 0 0 0
0 0 0 0 0 0 0 0 0 0 0 0 0 -1 -1 0 0 0 -1 0 0 -1 0 0 -1 0 0 0 0 0 0 0 0 0 0 0 0 0
0 0 0 0 0 0 0 0 0 0 0 0 0 0 0 0 0 0 0 0 0 0 0 -1 -3 0 0 0 0 0 0 0 0 0 0 0 0 0
0 0 0 0 0 0 0 0 0 0 0 0 0 -1 0 0 0 0 0 0 0 0 0 0 -1 0 0 0 0 0 0 0 0 0 0 0 0 0
Wind_Speed
11 10 8 8 8 8 8 8 8 8 7 4 4 6 7 6 9 9 11 12 16 16 15 15 12 11 12 14 14 13 12 14 12 14 15 15 15 16
9 10 11 10 8 7 6 6 6 9 10 5 7 7 5 5 8 8 11 10 15 15 16 15 15 14 13 15 16 16 15 17 18 18 17 16 16 15
9 11 12 10 8 7 7 8 8 8 11 10 5 6 6 8 4 6 5 5 5 14 16 16 16 17 16 16 16 18 18 18 19 18 19 19 17 15
10 7 10 6 8 8 9 11 10 11 10 15 10 5 9 7 8 8 6 5 7 10 18 17 20 20 19 19 18 18 18 19 19 19 19 18 18 16
11 11 11 13 13 9 10 10 9 9 10 9 9 6 6 3 3 4 5 8 8 13 16 19 23 24 21 22 22 21 18 20 20 19 16 16 18 18
8 8 10 12 13 13 12 13 11 10 9 10 10 8 6 5 5 6 6 7 10 9 15 16 19 23 22 21 20 20 20 20 22 20 19 19 18 19
7 8 10 13 14 15 10 14 13 11 10 8 9 7 5 3 8 8 11 10 12 10 9 10 9 9 11 19 18 22 24 26 27 25 23 22 22 20
7 7 7 13 16 19 19 17 15 13 12 11 11 11 13 8 9 11 9 8 7 8 11 11 8 11 10 11 22 26 26 27 27 26 28 28 25 22
6 5 4 3 0 8 17 20 18 19 19 14 14 12 12 12 10 12 12 12 13 5 8 11 7 12 12 13 25 27 29 29 31 29 27 26 26 26
4 4 5 3 3 3 6 11 14 12 3 3 2 4 4 4 2 4 12 15 12 5 6 8 5 10 10 10 19 25 28 30 30 31 31 30 29 27
6 8 6 7 12 10 4 7 8 7 7 12 10 10 11 12 10 3 4 3 2 2 2 3 4 3 3 7 8 18 24 28 30 31 32 32 30 29
8 8 18 13 16 16 9 6 8 7 5 6 5 8 10 10 13 8 4 2 1 3 4 2 4 3 5 1 4 5 7 22 28 30 32 32 31 15
7 7 9 18 17 17 16 8 7 4 5 5 5 5 6 6 5 6 5 3 1 2 3 2 1 0 4 4 3 3 5 7 8 14 27 30 31 26
7 6 10 17 18 18 13 15 14 8 5 5 5 6 6 6 5 3 3 3 3 4 6 3 3 1 4 8 8 2 4 7 8 9 9 16 27 29
7 13 16 14 14 13 18 17 14 8 7 7 7 7 6 5 6 4 3 4 4 4 4 4 4 5 5 8 10 11 10 4 8 10 10 10 11 12
10 9 12 13 16 12 11 11 8 7 6 5 4 2 3 3 2 3 5 6 7 6 5 7 7 5 8 9 9 12 10 11 4 10 11 12 12 13
7 6 6 6 7 8 7 7 6 6 6 3 3 3 4 5 4 4 3 6 6 8 7 3 6 7 8 11 11 12 13 12 11 12 11 13 13 14
6 7 7 7 8 7 7 6 5 7 7 5 5 5 6 7 8 6 3 5 8 8 9 7 5 6 6 10 19 12 11 12 12 10 12 14 14 12
7 7 7 6 6 6 6 5 6 6 6 6 6 8 7 8 13 10 9 9 9 9 9 8 8 7 10 13 12 17 11 10 11 11 11 12 13 9
7 6 6 5 6 5 5 5 5 5 6 6 7 8 8 8 10 10 9 11 10 10 10 8 7 7 9 12 13 10 14 9 9 10 6 0 1 7
5 5 5 4 4 5 4 3 4 5 7 6 6 7 8 8 9 9 10 18 18 10 11 9 8 17 9 6 5 6 3 7 5 2 1 2 2 0
4 3 4 4 4 3 4 5 5 5 6 6 8 7 8 9 9 10 9 11 10 10 11 10 9 6 5 5 9 7 2 2 4 8 10 5 1 3
3 3 3 4 4 4 4 4 4 5 6 7 8 8 9 10 10 9 10 10 9 9 9 9 7 3 5 2 7 2 3 1 2 2 4 8 8 10
Wind_Direction
217 209 203 213 217 206 204 199 216 238 241 218 241 225 226 215 218 211 225 210 211 209 209 213 228 232 227 211 211 217 228 239 243 241 242 244 254 263
216 209 211 217 205 196 195 201 220 223 246 216 226 235 219 219 208 207 219 190 203 205 210 211 215 226 227 213 207 209 209 233 238 242 246 249 253 259
212 209 216 215 202 199 205 214 222 219 240 250 223 221 225 223 219 209 198 198 219 218 216 215 217 218 221 217 210 204 208 219 235 236 241 243 244 250
208 197 217 213 222 207 202 211 218 223 232 241 237 229 228 222 218 192 204 199 217 218 229 220 222 216 214 214 215 211 204 215 225 231 234 242 243 243
208 204 211 226 230 222 221 219 214 223 228 236 240 223 210 183 181 197 194 221 221 226 222 230 227 220 209 216 215 213 210 217 218 227 227 233 246 240
203 201 209 211 219 225 232 229 226 227 224 232 241 237 214 198 210 214 231 227 233 225 228 228 230 224 215 217 219 219 218 214 223 220 219 226 230 237
212 206 216 216 214 218 219 228 228 230 233 236 247 244 213 185 210 226 240 236 236 229 231 235 229 226 222 223 223 220 221 225 217 212 217 220 224 226
219 220 216 215 216 212 212 213 210 217 224 231 237 237 243 214 230 228 224 232 248 195 231 242 210 232 220 213 217 225 222 227 228 223 211 209 218 219
214 209 203 103 17 240 231 232 223 220 222 223 233 232 242 234 206 218 223 228 236 226 214 242 195 230 225 227 225 220 223 223 224 223 220 217 219 218
95 98 104 96 39 286 255 239 230 236 342 278 348 44 67 6 41 302 246 233 243 253 203 250 200 230 242 239 232 228 225 225 226 222 219 218 217 218
73 90 82 71 31 27 101 90 65 62 65 71 59 58 68 41 17 33 21 37 315 277 258 266 227 261 257 247 239 235 235 232 232 229 226 222 215 216
78 59 70 67 58 46 55 59 74 54 37 62 65 53 56 46 37 43 31 39 348 335 352 351 358 14 306 302 291 267 259 249 242 235 230 226 218 208
69 56 64 62 59 58 63 57 62 51 42 68 70 55 52 47 29 18 11 351 289 245 15 33 284 252 210 282 230 220 218 251 257 251 248 238 224 211
67 59 67 68 63 60 56 57 54 49 41 47 53 43 25 9 356 356 349 334 309 277 300 285 275 260 279 287 287 324 269 247 229 228 237 245 237 225
67 74 71 68 64 57 54 53 49 43 38 39 29 20 1 333 329 330 301 264 253 243 229 224 233 270 270 278 286 287 287 258 242 246 233 212 229 221
62 64 65 63 59 56 47 41 42 42 44 40 25 335 301 326 324 324 319 322 319 310 248 233 233 244 274 270 271 280 273 268 252 247 244 239 214 221
69 62 53 49 49 44 43 40 34 29 16 343 342 343 340 336 330 309 297 312 303 313 310 268 234 229 241 259 274 271 277 272 260 249 235 240 236 212
59 59 56 50 48 41 36 28 20 20 11 355 358 352 348 344 337 334 327 328 313 312 307 306 293 285 264 246 227 261 265 267 270 252 240 241 238 221
69 58 52 40 34 29 20 8 360 1 358 4 354 359 352 350 350 338 328 321 312 308 305 305 296 286 289 285 294 232 258 267 270 251 231 230 232 210
57 51 44 30 29 22 11 2 349 339 357 353 356 359 354 338 327 320 314 308 301 295 292 288 279 269 268 280 286 292 221 263 261 255 239 265 55 153
50 44 30 22 17 10 351 307 300 344 360 347 347 342 335 324 312 303 294 295 295 290 284 280 275 283 286 287 283 279 285 278 269 273 168 185 146 48
65 54 34 20 11 342 330 331 344 341 338 342 339 331 320 306 296 295 293 291 284 280 279 284 285 278 278 255 275 285 283 303 45 72 56 67 235 147
71 48 28 8 2 355 335 321 321 332 338 330 318 313 307 302 301 294 291 288 286 282 279 293 299 269 267 255 279 274 293 11 10 56 69 67 56 86